Regional Weather Roundup
Issued by NWS

Home | Current Version | Previous Version | Text Only | Print | Product List | Glossary Off
Versions: 1 2 3 4 5 6 7 8 9 10 11 12 13 14 15 16 17 18 19 20 21 22 23 24 25 26 27 28 29 30 31 32 33 34 35 36 37 38 39 40 41 42 43 44 45 46 47 48 49 50

000
ASUS45 KABQ 190501
RWRNM
NEW MEXICO REGIONAL WEATHER ROUNDUP
NATIONAL WEATHER SERVICE ALBUQUERQUE NM
1100 PM MDT FRI AUG 18 2017

NOTE: "FAIR" MEANS FEW OR NO CLOUDS BELOW 12,000 FEET AGL WITH NO
       SIGNIFICANT WEATHER OR OBSTRUCTIONS TO VISION.

      THIS PRODUCT IS RELEASED AS TWO VERSIONS.  ONE VERSION NEAR
      THE TOP OF THE HOUR CONTAINING PRELIMINARY DATA FROM ALBUQUERQUE
      AND OTHER STATIONS.  A FINAL VERSION WITH ADDITIONAL DATA IS
      ISSUED ABOUT 10 MINUTES AFTER THE HOUR.

NMZ501-503-504-510>518-190600-
NORTHWEST PLATEAU/NORTHCENTRAL MOUNTAINS

CITY           SKY/WX    TMP DP  RH WIND       PRES   REMARKS
FARMINGTON     FAIR      71  28  20 N7        30.15R
LOS ALAMOS     FAIR      71  44  37 SW8       30.35R
SANTA FE       FAIR      73  48  41 SE14      30.26S
TAOS           FAIR      70  47  43 SE14      30.34R
ANGEL FIRE     FAIR      54  46  74 CALM      30.45S

$$
NMZ402-403-502-505>509-190600-
WESTCENTRAL MOUNTAINS/SOUTHWEST MOUNTAINS

CITY           SKY/WX    TMP DP  RH WIND       PRES   REMARKS
GALLUP         FAIR      62  30  29 N5        30.26R
GRANTS         FAIR      69  29  22 CALM      30.26S
SILVER CITY    FAIR      71  43  37 E8        30.20R

$$
NMZ407-409-411-412-190600-
SOUTHERN DESERTS

CITY           SKY/WX    TMP DP  RH WIND       PRES   REMARKS
DEMING         FAIR      81  54  39 SW12      30.12R
LAS CRUCES     FAIR      80  50  35 S15       30.16R
HOLLOMAN AFB   MOCLDY    82  52  35 SE10      30.11R
ALAMOGORDO     FAIR      82  50  32 CALM      30.11S
T OR C         FAIR      85  45  24 S13       30.13R

$$
NMZ519>523-190600-
CENTRAL VALLEYS/CENTRAL HIGHLANDS

CITY           SKY/WX    TMP DP  RH WIND       PRES   REMARKS
ALBUQUERQUE    FAIR      79  47  32 E10       30.16R
CLINES CORNERS FAIR      64  45  49 S10       30.34R
BELEN          NOT AVBL
SOCORRO        NOT AVBL

$$
NMZ524>526-539-540-190600-
SOUTHCENTRAL MOUNTAINS

CITY           SKY/WX    TMP DP  RH WIND       PRES   REMARKS
RUIDOSO        FAIR      63  46  55 S5        30.38S

$$
NMZ527>531-190600-
NORTHEAST HIGHLANDS/NORTHEAST PLAINS

CITY           SKY/WX    TMP DP  RH WIND       PRES   REMARKS
LAS VEGAS      FAIR      63  48  58 SW7       30.34R
RATON          FAIR      63  54  72 W7        30.28R
CLAYTON        FAIR      67  61  81 SW7       30.19S

$$
NMZ532>537-190600-
EASTCENTRAL PLAINS

CITY           SKY/WX    TMP DP  RH WIND       PRES   REMARKS
SANTA ROSA     FAIR      72  53  49 CALM      30.17R
TUCUMCARI      FAIR      76  64  66 S9        30.11R
CANNON AFB     FAIR      70  70 100 E6        30.17R
CLOVIS AIRPORT FAIR      69  64  84 S6        30.18R

$$
NMZ028-029-538-190600-
SOUTHEAST PLAINS

CITY           SKY/WX    TMP DP  RH WIND       PRES   REMARKS
ROSWELL        FAIR      77  59  53 S14       30.09R
ARTESIA        FAIR      79  61  53 SE8       30.11F
CARLSBAD       FAIR      75  65  70 CALM      30.10R
HOBBS          FAIR      72  63  73 SW5       30.14S


$$




USA.gov is the U.S. government's official web portal to all federal, state and local government web resources and services.